Time,TemperatureF,DewpointF,PressureIn,WindDirection,WindDirectionDegrees,WindSpeedMPH,WindSpeedGustMPH,Humidity,HourlyPrecipIn,Conditions,Clouds,dailyrainin,SoftwareType,DateUTC
2013-07-01 00:01:00,73.0,57.0,29.97,NNW,342,2.0,3.0,57,0.00,,,0.00,,2013-07-01 05:01:00,
2013-07-01 00:11:00,73.0,57.0,29.97,NNE,26,2.0,5.0,57,0.00,,,0.00,,2013-07-01 05:11:00,
2013-07-01 00:22:00,73.0,57.0,29.98,North,6,1.0,4.0,57,0.00,,,0.00,,2013-07-01 05:22:00,
2013-07-01 00:33:00,73.0,57.0,29.98,North,6,1.0,4.0,57,0.00,,,0.00,,2013-07-01 05:33:00,
2013-07-01 00:42:00,73.0,57.0,29.97,ENE,73,2.0,4.0,57,0.00,,,0.00,,2013-07-01 05:42:00,
2013-07-01 00:52:00,73.0,57.0,29.98,North,354,2.0,4.0,58,0.00,,,0.00,,2013-07-01 05:52:00,
2013-07-01 01:02:00,73.0,57.0,29.98,North,354,2.0,4.0,58,0.00,,,0.00,,2013-07-01 06:02:00,
2013-07-01 01:12:00,72.0,57.0,29.98,North,355,2.0,5.0,59,0.00,,,0.00,,2013-07-01 06:12:00,
2013-07-01 01:24:00,72.0,57.0,29.97,NNE,16,1.0,5.0,60,0.00,,,0.00,,2013-07-01 06:24:00,
2013-07-01 01:33:00,72.0,57.0,29.97,NNE,16,1.0,5.0,60,0.00,,,0.00,,2013-07-01 06:33:00,
2013-07-01 01:43:00,71.0,56.0,29.97,NNW,330,1.0,4.0,60,0.00,,,0.00,,2013-07-01 06:43:00,
2013-07-01 01:53:00,71.0,57.0,29.97,NNE,23,2.0,4.0,61,0.00,,,0.00,,2013-07-01 06:53:00,
2013-07-01 02:01:00,71.0,57.0,29.97,NNE,23,2.0,4.0,61,0.00,,,0.00,,2013-07-01 07:01:00,
2013-07-01 02:11:00,71.0,57.0,29.96,NW,322,3.0,6.0,61,0.00,,,0.00,,2013-07-01 07:11:00,
2013-07-01 02:22:00,70.0,56.0,29.97,NNW,347,3.0,6.0,61,0.00,,,0.00,,2013-07-01 07:22:00,
2013-07-01 02:33:00,70.0,56.0,29.97,NNW,347,3.0,6.0,61,0.00,,,0.00,,2013-07-01 07:33:00,
2013-07-01 02:43:00,70.0,56.0,29.97,North,354,1.0,4.0,61,0.00,,,0.00,,2013-07-01 07:43:00,
2013-07-01 02:53:00,69.0,56.0,29.97,NW,324,0.0,3.0,64,0.00,,,0.00,,2013-07-01 07:53:00,
2013-07-01 03:01:00,69.0,56.0,29.97,NW,324,0.0,3.0,64,0.00,,,0.00,,2013-07-01 08:01:00,
2013-07-01 03:11:00,68.0,56.0,29.96,NW,307,0.0,2.0,66,0.00,,,0.00,,2013-07-01 08:11:00,
2013-07-01 03:22:00,68.0,57.0,29.97,North,4,1.0,4.0,67,0.00,,,0.00,,2013-07-01 08:22:00,
2013-07-01 03:33:00,68.0,57.0,29.97,North,4,1.0,4.0,67,0.00,,,0.00,,2013-07-01 08:33:00,
2013-07-01 03:42:00,67.0,56.0,29.97,WNW,290,0.0,5.0,68,0.00,,,0.00,,2013-07-01 08:42:00,
2013-07-01 03:52:00,67.0,56.0,29.97,NNE,16,1.0,3.0,69,0.00,,,0.00,,2013-07-01 08:52:00,
2013-07-01 04:02:00,67.0,56.0,29.97,NNE,16,1.0,3.0,69,0.00,,,0.00,,2013-07-01 09:02:00,
2013-07-01 04:11:00,67.0,56.0,29.98,NNW,346,0.0,3.0,69,0.00,,,0.00,,2013-07-01 09:11:00,
2013-07-01 04:22:00,67.0,56.0,29.97,NE,42,1.0,4.0,69,0.00,,,0.00,,2013-07-01 09:22:00,
2013-07-01 04:34:00,67.0,56.0,29.97,NE,42,1.0,4.0,69,0.00,,,0.00,,2013-07-01 09:34:00,
2013-07-01 04:43:00,67.0,56.0,29.97,NNW,330,2.0,6.0,69,0.00,,,0.00,,2013-07-01 09:43:00,
2013-07-01 04:53:00,67.0,56.0,29.97,North,9,2.0,5.0,67,0.00,,,0.00,,2013-07-01 09:53:00,
2013-07-01 05:03:00,67.0,56.0,29.97,North,9,2.0,5.0,67,0.00,,,0.00,,2013-07-01 10:03:00,
2013-07-01 05:11:00,67.0,56.0,29.98,NW,322,2.0,5.0,67,0.00,,,0.00,,2013-07-01 10:11:00,
2013-07-01 05:22:00,66.0,55.0,29.98,NNW,330,1.0,7.0,68,0.00,,,0.00,,2013-07-01 10:22:00,
2013-07-01 05:33:00,66.0,55.0,29.98,NNW,330,1.0,7.0,68,0.00,,,0.00,,2013-07-01 10:33:00,
2013-07-01 05:42:00,66.0,56.0,29.99,NE,39,2.0,6.0,69,0.00,,,0.00,,2013-07-01 10:42:00,
2013-07-01 05:52:00,66.0,56.0,30.00,North,353,2.0,6.0,69,0.00,,,0.00,,2013-07-01 10:52:00,
2013-07-01 06:02:00,66.0,56.0,30.00,North,353,2.0,6.0,69,0.00,,,0.00,,2013-07-01 11:02:00,
2013-07-01 06:11:00,66.0,56.0,30.00,NNW,347,1.0,4.0,70,0.00,,,0.00,,2013-07-01 11:11:00,
2013-07-01 06:22:00,65.0,55.0,30.01,North,10,3.0,5.0,71,0.00,,,0.00,,2013-07-01 11:22:00,
2013-07-01 06:33:00,65.0,55.0,30.01,North,10,3.0,5.0,71,0.00,,,0.00,,2013-07-01 11:33:00,
2013-07-01 06:43:00,65.0,56.0,30.01,NNW,338,1.0,5.0,72,0.00,,,0.00,,2013-07-01 11:43:00,
2013-07-01 06:52:00,65.0,56.0,30.01,NNW,336,0.0,7.0,73,0.00,,,0.00,,2013-07-01 11:52:00,
2013-07-01 07:01:00,65.0,56.0,30.01,NNW,336,0.0,7.0,73,0.00,,,0.00,,2013-07-01 12:01:00,
2013-07-01 07:11:00,65.0,56.0,30.02,NNW,340,1.0,5.0,72,0.00,,,0.00,,2013-07-01 12:11:00,
2013-07-01 07:22:00,65.0,56.0,30.03,NE,44,1.0,3.0,72,0.00,,,0.00,,2013-07-01 12:22:00,
2013-07-01 07:33:00,65.0,56.0,30.03,NE,44,1.0,3.0,72,0.00,,,0.00,,2013-07-01 12:33:00,
2013-07-01 07:43:00,66.0,57.0,30.03,NW,305,0.0,3.0,73,0.00,,,0.00,,2013-07-01 12:43:00,
2013-07-01 08:01:00,66.0,57.0,30.04,NNW,335,1.0,5.0,73,0.00,,,0.00,,2013-07-01 13:01:00,
2013-07-01 08:12:00,67.0,57.0,30.04,WNW,296,2.0,6.0,70,0.00,,,0.00,,2013-07-01 13:12:00,
2013-07-01 08:23:00,67.0,57.0,30.04,WNW,296,2.0,6.0,70,0.00,,,0.00,,2013-07-01 13:23:00,
2013-07-01 08:33:00,68.0,58.0,30.04,NNW,334,2.0,5.0,70,0.00,,,0.00,,2013-07-01 13:33:00,
2013-07-01 08:43:00,69.0,58.0,30.06,NW,308,2.0,6.0,69,0.00,,,0.00,,2013-07-01 13:43:00,
2013-07-01 08:53:00,70.0,59.0,30.06,NW,320,3.0,6.0,68,0.00,,,0.00,,2013-07-01 13:53:00,
2013-07-01 09:01:00,70.0,59.0,30.06,NW,320,3.0,6.0,68,0.00,,,0.00,,2013-07-01 14:01:00,
2013-07-01 09:11:00,71.0,59.0,30.06,NNE,18,4.0,7.0,67,0.00,,,0.00,,2013-07-01 14:11:00,
2013-07-01 09:22:00,71.0,59.0,30.06,NNW,330,3.0,8.0,66,0.00,,,0.00,,2013-07-01 14:22:00,
2013-07-01 09:34:00,71.0,59.0,30.06,NNW,330,3.0,8.0,66,0.00,,,0.00,,2013-07-01 14:34:00,
2013-07-01 09:43:00,73.0,60.0,30.06,NNW,341,4.0,8.0,64,0.00,,,0.00,,2013-07-01 14:43:00,
2013-07-01 09:52:00,74.0,61.0,30.06,ENE,76,3.0,7.0,63,0.00,,,0.00,,2013-07-01 14:52:00,
2013-07-01 10:02:00,74.0,61.0,30.06,ENE,76,3.0,7.0,63,0.00,,,0.00,,2013-07-01 15:02:00,
2013-07-01 10:11:00,75.0,61.0,30.06,NW,316,2.0,8.0,62,0.00,,,0.00,,2013-07-01 15:11:00,
2013-07-01 10:23:00,76.0,62.0,30.06,NE,37,2.0,6.0,61,0.00,,,0.00,,2013-07-01 15:23:00,
2013-07-01 10:34:00,76.0,62.0,30.06,NE,37,2.0,6.0,61,0.00,,,0.00,,2013-07-01 15:34:00,
2013-07-01 10:43:00,77.0,61.0,30.06,NNW,328,5.0,9.0,58,0.00,,,0.00,,2013-07-01 15:43:00,
2013-07-01 10:52:00,77.0,62.0,30.06,ENE,70,6.0,11.0,59,0.00,,,0.00,,2013-07-01 15:52:00,
2013-07-01 11:01:00,77.0,62.0,30.06,ENE,70,6.0,11.0,59,0.00,,,0.00,,2013-07-01 16:01:00,
2013-07-01 11:11:00,77.0,61.0,30.06,NNE,19,6.0,10.0,58,0.00,,,0.00,,2013-07-01 16:11:00,
2013-07-01 11:22:00,78.0,62.0,30.06,NE,41,8.0,12.0,57,0.00,,,0.00,,2013-07-01 16:22:00,
2013-07-01 11:33:00,78.0,62.0,30.06,NE,41,8.0,12.0,57,0.00,,,0.00,,2013-07-01 16:33:00,
2013-07-01 11:44:00,78.0,61.0,30.05,NNE,30,5.0,12.0,55,0.00,,,0.00,,2013-07-01 16:44:00,
2013-07-01 11:53:00,79.0,61.0,30.05,NE,54,4.0,13.0,55,0.00,,,0.00,,2013-07-01 16:53:00,
2013-07-01 12:02:00,79.0,61.0,30.05,NE,54,4.0,13.0,55,0.00,,,0.00,,2013-07-01 17:02:00,
2013-07-01 12:12:00,78.0,61.0,30.05,NNE,15,4.0,12.0,55,0.00,,,0.00,,2013-07-01 17:12:00,
2013-07-01 12:23:00,80.0,62.0,30.05,North,353,3.0,14.0,54,0.00,,,0.00,,2013-07-01 17:23:00,
2013-07-01 12:33:00,80.0,62.0,30.05,North,353,3.0,14.0,54,0.00,,,0.00,,2013-07-01 17:33:00,
2013-07-01 12:43:00,81.0,61.0,30.04,ENE,57,4.0,12.0,50,0.00,,,0.00,,2013-07-01 17:43:00,
2013-07-01 12:53:00,80.0,60.0,30.04,NNE,23,8.0,14.0,50,0.00,,,0.00,,2013-07-01 17:53:00,
2013-07-01 13:02:00,80.0,60.0,30.04,NNE,23,8.0,14.0,50,0.00,,,0.00,,2013-07-01 18:02:00,
2013-07-01 13:11:00,81.0,61.0,30.04,NNE,31,8.0,16.0,50,0.00,,,0.00,,2013-07-01 18:11:00,
2013-07-01 13:33:00,81.0,59.0,30.03,NE,47,4.0,12.0,47,0.00,,,0.00,,2013-07-01 18:33:00,
2013-07-01 13:43:00,81.0,60.0,30.03,NE,37,6.0,13.0,49,0.00,,,0.00,,2013-07-01 18:43:00,
2013-07-01 14:01:00,83.0,61.0,30.03,NW,315,3.0,13.0,48,0.00,,,0.00,,2013-07-01 19:01:00,
2013-07-01 14:11:00,82.0,59.0,30.03,NNW,348,6.0,15.0,46,0.00,,,0.00,,2013-07-01 19:11:00,
2013-07-01 14:33:00,82.0,59.0,30.03,North,351,4.0,12.0,45,0.00,,,0.00,,2013-07-01 19:33:00,
2013-07-01 14:44:00,83.0,61.0,30.02,NNW,329,3.0,9.0,47,0.00,,,0.00,,2013-07-01 19:44:00,
2013-07-01 15:01:00,83.0,58.0,30.02,NNW,345,4.0,11.0,42,0.00,,,0.00,,2013-07-01 20:01:00,
2013-07-01 15:11:00,84.0,58.0,30.02,NE,49,6.0,10.0,42,0.00,,,0.00,,2013-07-01 20:11:00,
2013-07-01 15:22:00,84.0,58.0,30.02,NE,49,6.0,10.0,42,0.00,,,0.00,,2013-07-01 20:22:00,
2013-07-01 15:34:00,84.0,59.0,30.01,North,353,4.0,10.0,43,0.00,,,0.00,,2013-07-01 20:34:00,
2013-07-01 15:43:00,85.0,59.0,30.01,NNW,333,1.0,7.0,42,0.00,,,0.00,,2013-07-01 20:43:00,
2013-07-01 15:52:00,85.0,59.0,30.01,NNW,333,1.0,7.0,42,0.00,,,0.00,,2013-07-01 20:52:00,
2013-07-01 16:01:00,85.0,57.0,30.01,East,82,3.0,11.0,38,0.00,,,0.00,,2013-07-01 21:01:00,
2013-07-01 16:11:00,84.0,56.0,30.01,ENE,69,4.0,11.0,38,0.00,,,0.00,,2013-07-01 21:11:00,
2013-07-01 16:24:00,84.0,56.0,30.01,ENE,69,4.0,11.0,38,0.00,,,0.00,,2013-07-01 21:24:00,
2013-07-01 16:34:00,85.0,57.0,30.01,NW,315,3.0,10.0,39,0.00,,,0.00,,2013-07-01 21:34:00,
2013-07-01 16:43:00,85.0,57.0,30.01,NW,315,3.0,10.0,39,0.00,,,0.00,,2013-07-01 21:43:00,
2013-07-01 16:53:00,85.0,57.0,30.01,NW,315,3.0,10.0,39,0.00,,,0.00,,2013-07-01 21:53:00,
2013-07-01 17:01:00,86.0,56.0,30.00,NE,36,3.0,10.0,36,0.00,,,0.00,,2013-07-01 22:01:00,
2013-07-01 17:11:00,84.0,53.0,30.00,NNE,29,8.0,15.0,35,0.00,,,0.00,,2013-07-01 22:11:00,
2013-07-01 17:23:00,84.0,53.0,30.00,NNE,29,8.0,15.0,35,0.00,,,0.00,,2013-07-01 22:23:00,
2013-07-01 17:33:00,85.0,55.0,30.00,NNE,29,6.0,11.0,36,0.00,,,0.00,,2013-07-01 22:33:00,
2013-07-01 17:43:00,85.0,53.0,30.00,North,11,6.0,13.0,33,0.00,,,0.00,,2013-07-01 22:43:00,
2013-07-01 17:53:00,85.0,53.0,30.00,North,11,6.0,13.0,33,0.00,,,0.00,,2013-07-01 22:53:00,
2013-07-01 18:01:00,85.0,54.0,29.99,WNW,295,4.0,11.0,35,0.00,,,0.00,,2013-07-01 23:01:00,
2013-07-01 18:11:00,85.0,54.0,29.99,NNE,23,4.0,10.0,35,0.00,,,0.00,,2013-07-01 23:11:00,
2013-07-01 18:22:00,85.0,54.0,29.99,NNE,23,4.0,10.0,35,0.00,,,0.00,,2013-07-01 23:22:00,
2013-07-01 18:33:00,84.0,53.0,29.99,NNW,335,5.0,11.0,34,0.00,,,0.00,,2013-07-01 23:33:00,
2013-07-01 18:44:00,83.0,52.0,29.99,North,4,6.0,10.0,35,0.00,,,0.00,,2013-07-01 23:44:00,
2013-07-01 18:53:00,83.0,52.0,29.99,North,4,6.0,10.0,35,0.00,,,0.00,,2013-07-01 23:53:00,
2013-07-01 19:01:00,83.0,53.0,29.99,NE,48,4.0,9.0,36,0.00,,,0.00,,2013-07-02 00:01:00,
2013-07-01 19:12:00,83.0,52.0,29.99,ENE,58,4.0,9.0,35,0.00,,,0.00,,2013-07-02 00:12:00,
2013-07-01 19:22:00,83.0,52.0,29.99,ENE,58,4.0,9.0,35,0.00,,,0.00,,2013-07-02 00:22:00,
2013-07-01 19:33:00,82.0,50.0,30.00,NNW,331,6.0,14.0,33,0.00,,,0.00,,2013-07-02 00:33:00,
2013-07-01 19:53:00,82.0,51.0,30.00,NNE,29,3.0,10.0,34,0.00,,,0.00,,2013-07-02 00:53:00,
2013-07-01 20:01:00,82.0,51.0,30.01,NNE,30,3.0,10.0,34,0.00,,,0.00,,2013-07-02 01:01:00,
2013-07-01 20:11:00,81.0,51.0,30.01,North,8,4.0,7.0,35,0.00,,,0.00,,2013-07-02 01:11:00,
2013-07-01 20:22:00,81.0,51.0,30.01,North,8,4.0,7.0,35,0.00,,,0.00,,2013-07-02 01:22:00,
2013-07-01 20:33:00,80.0,51.0,30.01,NE,34,1.0,4.0,37,0.00,,,0.00,,2013-07-02 01:33:00,
2013-07-01 20:43:00,80.0,51.0,30.01,NNW,333,1.0,4.0,36,0.00,,,0.00,,2013-07-02 01:43:00,
2013-07-01 20:53:00,80.0,51.0,30.01,NNW,333,1.0,4.0,36,0.00,,,0.00,,2013-07-02 01:53:00,
2013-07-01 21:02:00,79.0,51.0,30.01,NNW,338,3.0,6.0,38,0.00,,,0.00,,2013-07-02 02:02:00,
2013-07-01 21:11:00,78.0,52.0,30.01,North,1,0.0,2.0,41,0.00,,,0.00,,2013-07-02 02:11:00,
2013-07-01 21:22:00,78.0,52.0,30.01,North,1,0.0,2.0,41,0.00,,,0.00,,2013-07-02 02:22:00,
2013-07-01 21:33:00,76.0,52.0,30.01,North,1,0.0,1.0,44,0.00,,,0.00,,2013-07-02 02:33:00,
2013-07-01 21:43:00,74.0,53.0,30.01,North,1,0.0,0.0,48,0.00,,,0.00,,2013-07-02 02:43:00,
2013-07-01 21:53:00,74.0,53.0,30.01,North,1,0.0,0.0,48,0.00,,,0.00,,2013-07-02 02:53:00,
2013-07-01 22:01:00,73.0,53.0,30.02,North,1,0.0,2.0,49,0.00,,,0.00,,2013-07-02 03:01:00,
2013-07-01 22:12:00,73.0,53.0,30.02,North,4,0.0,1.0,49,0.00,,,0.00,,2013-07-02 03:12:00,
2013-07-01 22:24:00,73.0,53.0,30.02,North,4,0.0,1.0,49,0.00,,,0.00,,2013-07-02 03:24:00,
2013-07-01 22:32:00,72.0,53.0,30.03,North,1,0.0,0.0,52,0.00,,,0.00,,2013-07-02 03:32:00,
2013-07-01 22:43:00,71.0,54.0,30.03,North,1,0.0,0.0,56,0.00,,,0.00,,2013-07-02 03:43:00,
2013-07-01 22:53:00,71.0,54.0,30.03,North,1,0.0,0.0,56,0.00,,,0.00,,2013-07-02 03:53:00,
2013-07-01 23:02:00,69.0,55.0,30.03,North,1,0.0,0.0,60,0.00,,,0.00,,2013-07-02 04:02:00,
2013-07-01 23:11:00,68.0,55.0,30.04,North,1,0.0,0.0,64,0.00,,,0.00,,2013-07-02 04:11:00,
2013-07-01 23:22:00,68.0,55.0,30.04,North,1,0.0,0.0,64,0.00,,,0.00,,2013-07-02 04:22:00,
2013-07-01 23:32:00,68.0,55.0,30.04,North,1,0.0,0.0,64,0.00,,,0.00,,2013-07-02 04:32:00,
2013-07-01 23:42:00,68.0,55.0,30.04,North,1,0.0,0.0,64,0.00,,,0.00,,2013-07-02 04:42:00,
2013-07-01 23:53:00,66.0,56.0,30.05,North,1,0.0,0.0,70,0.00,,,0.00,,2013-07-02 04:53:00,